This is the latest recevied weather packets stored in our database for station/object SHLBYV-WX. If no packets are shown the sender has not sent any weather packets the latest 1 day(s).
| Time | Temp. | Humidity | Pressure | Rain* | Wind** | Luminosity | Snow |
|---|---|---|---|---|---|---|---|
| 1777975290 | 10° C | 57% | 972.5 hPa | 0 mm | 4.92 m/s, 271° | - | - |
| 1777974351 | 10° C | 61% | 972.8 hPa | 0 mm | 4.47 m/s, 274° | - | - |
| 1777973474 | 10° C | 59% | 972.6 hPa | 0 mm | 3.58 m/s, 269° | - | - |
| 1777972552 | 10.56° C | 59% | 972.6 hPa | 0 mm | 4.02 m/s, 264° | - | - |
| 1777971693 | 10.56° C | 59% | 972.6 hPa | 0 mm | 4.92 m/s, 267° | - | - |
| 1777970750 | 10.56° C | 74% | 972.7 hPa | 0 mm | 4.92 m/s, 277° | - | - |
| 1777969870 | 11.11° C | 78% | 971.9 hPa | 0 mm | 4.47 m/s, 272° | - | - |
| 1777968951 | 11.11° C | 78% | 971.9 hPa | 0 mm | 4.02 m/s, 263° | - | - |
| 1777968084 | 11.11° C | 64% | 971.9 hPa | 0 mm | 3.13 m/s, 260° | - | - |
| 1777967152 | 11.67° C | 75% | 971.5 hPa | 0 mm | 4.02 m/s, 258° | - | - |
| 1777966272 | 11.67° C | 75% | 971.5 hPa | 0 mm | 4.02 m/s, 255° | - | - |
| 1777965352 | 12.22° C | 75% | 971.5 hPa | 0 mm | 4.47 m/s, 251° | - | - |
| 1777964486 | 12.78° C | 75% | 971.5 hPa | 0 mm | 4.02 m/s, 242° | - | - |
| 1777963551 | 12.78° C | 77% | 971.8 hPa | 0 mm | 4.92 m/s, 252° | - | - |
| 1777962668 | 12.78° C | 77% | 971.3 hPa | 0 mm | 4.92 m/s, 245° | - | - |
| 1777961753 | 13.33° C | 77% | 971.3 hPa | 0 mm | 5.36 m/s, 242° | - | - |
| 1777960899 | 13.89° C | 77% | 971.3 hPa | 0 mm | 5.36 m/s, 242° | - | - |
| 1777959952 | 13.89° C | 76% | 972.3 hPa | 0 mm | 5.36 m/s, 235° | - | - |
| 1777959075 | 14.44° C | 68% | 971 hPa | 0 mm | 4.47 m/s, 251° | - | - |
| 1777958151 | 15° C | 68% | 971 hPa | 0 mm | 4.92 m/s, 234° | - | - |
* Rain latest hour (hover to see other rain measurements)
** Current wind speed in m/s (hover to see current wind gust speed)